Wind_Speed
9 10 12 13 14 14 15 14 13 12 12 11 12 12 12 11 11 11 12 13 12 12 11 9 5 4 5 6 7 7 6 2 4 8 9 8 7 7 6 7 6 8 6 6 7 5 6 9 10
7 9 10 12 13 14 13 12 11 11 10 11 12 12 11 10 9 9 9 9 10 10 10 9 8 5 2 1 2 4 4 4 4 3 4 6 6 6 6 6 5 5 4 5 7 8 7 8 11
6 8 10 11 12 12 12 11 10 10 9 10 12 12 11 10 9 7 7 6 6 7 7 7 7 7 6 3 2 1 0 1 2 4 5 6 6 7 7 8 8 6 6 6 7 8 9 9 11
5 6 8 10 12 11 10 10 10 10 9 9 11 11 10 9 9 10 7 4 3 3 3 4 5 5 5 5 6 4 4 4 4 4 4 5 6 7 7 8 9 8 8 9 9 10 11 12 13
3 5 8 12 12 13 11 10 9 8 7 6 8 10 11 10 8 7 8 8 7 6 5 5 5 5 5 4 4 4 4 5 8 8 8 8 8 8 9 9 9 9 9 10 11 13 13 13 14
5 7 9 12 15 14 12 9 9 7 6 5 6 7 9 10 9 8 8 8 8 9 9 9 9 9 9 9 8 8 7 7 7 8 10 12 12 13 13 12 12 12 11 12 12 13 13 15 16
9 11 12 15 16 16 13 9 7 7 7 7 6 8 10 10 9 10 11 11 10 8 8 8 8 9 10 11 12 12 12 12 11 11 11 11 11 14 16 16 15 16 16 15 15 15 15 16 17
13 14 15 17 18 17 13 10 8 8 9 10 10 10 11 8 8 10 11 12 13 11 10 9 9 9 8 9 11 13 15 16 16 16 16 16 15 14 15 15 18 20 20 19 19 19 19 19 18
15 17 18 19 20 16 12 11 11 11 12 11 12 12 11 8 7 8 10 12 13 14 14 15 14 13 13 13 13 13 15 16 18 20 20 20 20 20 19 18 19 20 19 20 22 24 23 23 23
19 20 21 21 19 13 11 12 13 14 14 14 14 12 10 9 10 10 11 12 13 14 15 17 18 18 18 18 18 18 18 19 20 21 22 24 25 25 24 24 24 24 24 22 22 22 22 25 26
23 24 23 20 15 13 15 16 15 16 15 14 17 15 13 12 11 13 14 15 16 16 16 17 19 21 21 21 22 22 23 23 23 23 23 23 25 28 28 28 28 28 29 28 27 27 26 26 27
25 23 21 17 15 16 18 18 15 17 16 18 17 17 15 14 13 14 16 16 17 18 19 18 18 19 20 21 23 25 26 27 27 26 25 25 26 27 28 29 30 31 32 32 32 31 31 31 31
23 20 19 18 18 18 20 21 20 18 19 21 20 17 15 15 15 18 19 18 17 17 18 18 18 19 20 22 22 24 27 27 29 30 30 30 29 28 29 31 31 32 33 34 35 34 35 35 36
21 22 22 23 22 21 21 20 22 21 21 21 21 19 16 16 19 21 20 19 19 19 20 20 20 21 23 23 25 26 25 26 29 30 31 32 34 35 34 34 34 34 36 36 37 37 37 37 37
24 24 24 25 24 22 22 23 24 23 22 21 20 19 20 21 23 24 22 20 19 19 20 20 21 22 24 25 25 26 27 29 29 31 32 34 36 37 38 40 41 41 40 39 40 39 39 41 42
27 27 25 23 24 25 25 25 25 25 23 23 23 23 24 25 26 23 21 20 19 19 20 21 23 24 25 27 29 31 31 31 33 35 36 37 38 40 41 42 43 45 45 45 46 45 44 45 44
30 27 23 24 25 26 24 23 26 27 27 26 27 28 29 29 28 25 23 22 21 21 23 24 25 26 27 28 30 31 32 33 34 34 35 37 39 41 42 44 46 47 48 50 50 51 52 51 50
29 27 25 22 26 28 27 26 29 30 30 29 28 28 28 28 27 28 27 27 26 24 25 26 28 31 33 34 35 36 37 38 38 39 39 40 41 43 44 46 48 49 49 50 51 53 55 56 56
32 30 27 27 31 32 31 31 31 31 30 30 28 27 26 26 26 26 27 29 29 29 30 31 32 33 35 36 39 39 39 41 41 42 43 44 46 48 48 50 52 53 53 54 56 56 56 58 58
31 31 30 31 34 37 36 33 31 30 28 27 26 27 27 27 28 31 30 31 32 33 33 34 36 38 40 42 42 44 45 45 46 47 47 49 50 52 53 54 55 55 57 58 60 61 61 61 61
34 35 34 38 39 40 39 36 31 30 29 27 26 27 28 29 30 31 31 30 30 32 33 35 36 36 38 40 42 46 48 49 50 51 52 53 52 53 55 55 56 56 58 60 62 64 66 67 68
38 38 40 41 42 42 39 39 29 30 30 28 29 30 29 30 33 32 31 32 33 36 37 37 38 38 38 40 43 46 48 50 52 54 56 57 55 56 57 58 59 60 60 62 65 65 66 67 69
43 41 42 43 42 42 40 39 35 32 30 29 30 31 31 33 32 34 35 37 38 39 40 41 40 39 39 43 45 47 49 52 55 58 59 61 62 65 67 66 66 65 67 68 69 69 70 71 72
46 44 43 42 43 43 36 39 42 37 32 33 32 30 30 33 37 41 41 39 39 40 42 43 42 41 44 47 50 52 54 57 59 60 62 63 64 63 64 68 70 73 74 75 75 76 76 77 77
39 38 41 43 43 41 39 41 39 38 37 35 35 37 36 36 38 38 38 41 43 42 43 43 45 46 50 53 56 57 59 60 61 63 64 66 67 68 68 70 73 75 76 78 79 81 82 82 80
36 40 42 43 42 42 43 43 40 38 35 35 35 39 40 40 40 40 42 44 48 48 52 50 52 55 57 58 60 62 64 67 69 69 68 69 71 72 74 76 76 76 77 78 78 79 81 83 84
38 41 39 43 46 47 45 44 43 43 43 42 40 38 40 40 41 45 46 48 51 53 57 58 58 60 60 63 66 68 71 73 74 75 75 75 76 77 77 77 78 77 76 77 78 79 81 83 85
42 43 45 47 47 47 48 48 47 48 47 45 43 42 43 45 47 50 53 56 56 57 60 60 60 63 65 68 73 75 75 76 76 76 77 79 79 79 78 78 78 78 80 81 81 82 83 83 85
43 45 47 47 48 49 48 51 54 54 50 48 46 46 49 50 51 55 58 58 60 59 62 64 66 69 70 72 76 78 78 80 81 82 81 81 80 79 78 80 81 81 81 82 83 84 85 86 87
48 47 48 49 50 49 52 54 58 55 52 51 51 52 55 58 58 59 59 59 61 62 64 65 69 72 74 76 79 80 81 82 83 83 82 81 80 80 81 82 83 85 87 88 89 89 89 89 89
Wind_Direction
63 46 43 34 28 26 32 26 22 23 28 33 32 32 38 38 41 43 43 47 47 45 41 34 27 36 54 66 70 75 76 105 216 231 242 246 246 244 248 256 250 263 274 270 265 270 266 264 262
63 43 26 19 20 16 18 21 17 18 24 30 31 28 33 39 36 34 32 34 34 35 35 37 35 34 21 37 67 81 99 110 111 154 203 223 233 234 236 250 248 244 246 248 244 248 248 250 253
47 29 15 8 4 8 7 4 10 17 20 27 29 27 27 30 29 33 37 34 23 13 12 12 18 17 15 354 292 269 266 114 163 187 190 199 211 221 230 240 246 240 236 238 244 243 241 242 250
32 19 5 354 351 352 355 352 355 8 11 20 26 23 19 22 19 16 13 15 18 7 350 337 341 349 354 355 355 327 272 257 247 244 236 229 224 230 234 237 239 237 240 243 244 245 241 241 245
2 1 355 345 345 337 341 341 344 358 6 12 16 15 5 3 7 8 2 359 345 336 329 316 303 299 299 303 304 302 308 291 264 256 254 256 257 254 248 245 250 250 245 242 239 242 241 245 250
316 322 337 335 333 329 330 336 336 340 339 345 359 355 347 336 334 333 335 345 355 351 340 331 321 307 293 283 278 276 273 270 273 270 258 252 251 252 256 258 256 255 252 252 253 252 250 249 250
312 315 322 324 325 321 321 325 325 326 321 319 321 323 338 314 310 315 322 327 328 331 333 329 324 319 310 296 285 278 276 272 269 266 264 267 266 260 259 261 261 263 265 264 262 261 261 260 259
304 308 313 317 320 317 313 314 311 318 326 319 303 306 315 309 300 304 305 304 303 302 297 293 293 298 298 295 288 281 275 275 273 269 271 273 271 270 273 275 271 266 264 265 266 266 265 264 264
298 303 308 313 314 312 305 308 305 308 316 324 309 317 313 305 308 305 297 290 286 285 285 287 287 285 287 287 286 282 277 273 270 268 268 269 270 271 271 269 270 272 272 271 268 268 269 268 267
295 299 303 303 302 302 294 297 296 293 307 319 313 309 309 307 303 302 299 291 286 282 278 274 275 277 278 281 282 283 283 280 273 270 268 266 268 269 269 269 269 272 272 271 271 270 271 272 272
297 297 296 294 290 293 292 293 292 285 295 306 309 310 306 303 296 293 295 291 282 281 286 287 282 279 278 278 279 279 281 281 283 284 279 274 270 269 268 267 267 267 268 270 271 271 271 272 272
297 293 292 287 280 292 293 288 286 282 286 295 296 295 299 299 298 301 295 285 281 278 281 286 290 289 289 291 291 288 287 284 284 283 284 283 279 276 274 269 266 267 267 267 267 269 270 271 271
290 288 289 283 281 288 289 287 285 285 284 288 292 293 291 290 293 299 299 292 281 275 273 277 281 286 288 286 287 290 290 286 285 283 282 281 279 277 277 277 276 271 268 266 266 267 269 270 272
280 282 286 283 285 286 285 285 286 290 289 291 293 293 289 285 284 290 287 288 282 277 277 278 276 274 276 277 279 282 283 284 285 283 281 279 277 278 277 275 273 274 274 273 269 267 266 266 266
276 278 279 280 282 280 280 282 285 287 289 289 290 292 292 292 292 292 290 282 277 274 275 277 279 282 284 282 279 279 278 277 276 276 277 276 273 271 270 272 273 274 272 271 272 272 272 271 270
275 274 274 275 276 276 276 279 281 283 285 284 285 285 288 293 294 292 291 288 287 285 283 283 285 285 286 284 285 286 285 283 282 283 282 278 276 273 269 267 268 268 269 270 271 272 270 269 268
272 271 272 273 274 273 270 270 278 283 287 288 289 292 294 295 293 291 287 283 283 286 288 291 294 294 293 291 288 286 284 282 281 279 276 274 275 276 276 275 274 273 271 269 270 270 270 269 268
271 272 269 269 270 274 276 274 276 279 280 281 281 281 282 282 285 288 290 290 289 289 288 289 290 289 287 287 287 287 287 286 284 282 280 277 274 272 271 271 271 271 271 270 269 267 268 269 270
270 270 265 268 273 274 273 273 274 276 274 274 274 275 278 283 284 285 285 283 284 285 282 283 283 282 282 281 282 281 281 282 282 282 282 280 279 277 275 272 272 271 270 269 269 268 267 269 268
268 267 270 272 273 270 274 273 273 271 269 269 271 276 278 277 279 280 279 278 279 280 281 284 285 287 288 289 288 288 288 287 284 283 283 282 282 282 282 280 278 275 274 273 272 272 270 268 268
266 268 274 275 275 273 274 271 270 268 270 273 276 280 282 281 278 275 273 273 273 276 278 279 279 277 279 280 281 283 284 283 282 282 280 277 275 272 273 274 274 276 276 275 274 273 272 271 270
267 268 273 278 274 272 271 272 265 269 270 276 284 283 282 283 283 279 276 276 277 277 276 276 278 281 282 281 277 274 274 275 277 278 278 278 277 275 275 274 274 274 273 273 273 272 271 271 271
265 267 271 274 272 271 271 273 273 268 272 273 278 277 280 281 282 282 280 278 276 274 275 274 276 277 280 280 278 275 274 273 272 271 271 270 271 273 273 273 273 274 275 275 274 273 271 271 270
263 265 267 266 267 267 271 275 278 285 284 285 281 273 275 280 281 279 276 272 271 273 275 277 276 278 280 280 279 276 274 275 277 277 276 275 275 274 272 271 271 271 270 270 272 273 273 273 272
262 262 263 263 264 270 272 272 279 289 292 291 289 284 282 285 281 280 283 286 282 277 276 279 281 281 281 281 281 281 281 281 280 279 278 279 279 278 277 276 275 274 273 274 273 273 275 276 275
259 259 260 264 267 267 268 274 281 284 286 286 285 286 286 287 288 288 287 286 286 287 288 285 283 284 284 283 283 283 282 282 282 281 281 281 282 282 282 281 280 279 279 280 280 280 280 281 281
264 265 266 265 264 267 272 275 280 283 283 286 288 288 288 290 289 286 284 283 282 283 284 282 282 284 285 285 285 284 283 282 283 284 286 286 285 285 284 285 286 287 287 287 286 285 283 282 280
262 264 264 265 267 270 274 281 284 286 286 289 289 288 289 289 287 287 287 287 285 283 284 285 286 285 285 285 285 286 287 287 287 287 287 287 288 289 289 289 289 288 287 287 286 285 284 282 280
264 262 262 264 264 271 282 284 283 284 288 293 291 289 290 292 288 287 286 284 283 282 281 282 285 286 288 288 287 287 288 288 289 289 289 289 289 289 290 289 288 288 289 288 288 286 285 283 281
263 261 263 267 274 274 274 280 283 286 289 290 288 291 291 288 287 286 284 283 281 282 284 287 287 288 288 288 288 288 288 289 289 289 290 291 292 291 291 292 292 292 291 289 288 286 285 283 281
Height
5884 5884 5884 5884 5887 5884 5884 5884 5883 5882 5882 5881 5881 5881 5882 5881 5881 5882 5880 5879 5879 5879 5879 5879 5878 5878 5878 5878 5878 5878 5879 5879 5879 5880 5881 5882 5883 5884 5885 5885 5885 5886 5886 5886 5887 5887 5888 5888 5889
5884 5884 5885 5884 5886 5884 5884 5884 5883 5883 5882 5882 5882 5881 5881 5881 5880 5880 5880 5880 5880 5880 5880 5879 5879 5878 5878 5878 5878 5877 5877 5877 5878 5879 5880 5881 5882 5883 5883 5884 5884 5884 5884 5885 5885 5886 5886 5886 5886
5884 5884 5885 5885 5885 5885 5884 5883 5883 5883 5882 5882 5882 5881 5881 5881 5880 5880 5880 5880 5880 5880 5880 5879 5879 5879 5878 5878 5877 5877 5877 5878 5878 5879 5879 5880 5881 5882 5882 5882 5883 5882 5882 5883 5883 5884 5884 5884 5885
5884 5885 5886 5885 5884 5884 5883 5883 5882 5883 5882 5882 5881 5881 5881 5880 5880 5880 5880 5879 5879 5879 5878 5879 5879 5878 5878 5878 5878 5878 5878 5878 5879 5879 5879 5879 5879 5879 5879 5880 5880 5880 5880 5881 5882 5883 5883 5883 5883
5885 5885 5884 5884 5884 5883 5882 5882 5881 5882 5882 5882 5881 5880 5880 5879 5879 5879 5879 5879 5879 5878 5878 5877 5877 5877 5877 5877 5877 5877 5877 5877 5877 5878 5878 5878 5878 5878 5878 5878 5878 5878 5878 5878 5879 5880 5880 5881 5881
5884 5884 5884 5883 5882 5882 5881 5881 5881 5881 5881 5881 5881 5880 5880 5878 5878 5878 5877 5878 5878 5878 5877 5877 5877 5877 5876 5876 5876 5876 5876 5876 5876 5876 5876 5876 5876 5876 5875 5875 5875 5875 5875 5876 5876 5877 5877 5877 5878
5883 5883 5883 5882 5881 5879 5879 5879 5879 5879 5879 5879 5879 5879 5879 5878 5876 5876 5876 5876 5876 5876 5876 5875 5875 5875 5875 5875 5875 5875 5875 5875 5875 5874 5874 5874 5874 5873 5873 5872 5872 5872 5872 5873 5873 5873 5873 5874 5875
5881 5881 5881 5880 5879 5878 5877 5877 5878 5878 5878 5878 5877 5877 5877 5876 5875 5875 5874 5874 5873 5873 5873 5873 5873 5873 5873 5872 5872 5872 5872 5872 5872 5872 5871 5871 5870 5870 5870 5870 5869 5869 5870 5870 5870 5871 5871 5871 5871
5879 5879 5878 5877 5876 5875 5875 5875 5875 5875 5875 5875 5874 5874 5874 5873 5873 5873 5872 5872 5871 5871 5870 5870 5870 5869 5869 5869 5869 5868 5868 5867 5867 5867 5867 5867 5867 5867 5867 5867 5867 5867 5867 5867 5867 5867 5867 5867 5867
5876 5876 5875 5874 5872 5872 5872 5872 5872 5872 5871 5871 5871 5872 5871 5871 5871 5870 5869 5869 5868 5868 5867 5867 5867 5866 5865 5865 5864 5864 5864 5863 5863 5862 5863 5863 5862 5862 5862 5863 5863 5863 5863 5863 5863 5863 5863 5862 5862
5872 5871 5870 5870 5869 5869 5868 5869 5869 5868 5868 5868 5866 5867 5867 5867 5867 5866 5866 5865 5865 5864 5864 5863 5863 5863 5863 5862 5861 5859 5859 5858 5859 5859 5859 5858 5857 5857 5857 5857 5857 5857 5857 5857 5857 5857 5857 5857 5857
5867 5866 5866 5866 5865 5866 5864 5864 5865 5864 5865 5864 5864 5863 5863 5863 5862 5862 5861 5861 5860 5859 5860 5859 5859 5859 5858 5858 5858 5857 5856 5854 5853 5853 5853 5853 5853 5852 5851 5851 5851 5851 5851 5850 5850 5851 5851 5851 5851
5861 5861 5860 5861 5861 5862 5860 5859 5859 5860 5861 5860 5860 5860 5859 5858 5857 5856 5856 5855 5855 5855 5855 5855 5854 5853 5853 5852 5851 5851 5850 5850 5850 5849 5848 5848 5848 5846 5845 5844 5844 5844 5843 5843 5843 5844 5844 5844 5844
5856 5855 5855 5855 5856 5856 5855 5854 5853 5855 5855 5854 5854 5854 5855 5854 5854 5853 5852 5851 5850 5849 5849 5850 5850 5849 5849 5847 5845 5844 5844 5844 5844 5843 5843 5842 5841 5841 5840 5838 5837 5836 5836 5836 5836 5836 5836 5836 5836
5851 5851 5850 5849 5850 5850 5850 5849 5848 5848 5848 5848 5849 5849 5849 5848 5847 5846 5845 5845 5845 5844 5844 5844 5844 5844 5843 5842 5841 5841 5839 5837 5836 5835 5835 5834 5833 5833 5833 5831 5829 5828 5828 5827 5827 5828 5828 5828 5827
5844 5845 5844 5844 5844 5845 5845 5844 5842 5842 5843 5843 5844 5843 5843 5842 5841 5840 5839 5839 5839 5839 5839 5838 5838 5837 5837 5836 5835 5834 5833 5833 5832 5831 5829 5827 5825 5824 5823 5822 5821 5821 5820 5819 5817 5817 5817 5816 5816
5837 5838 5840 5839 5837 5837 5839 5840 5836 5836 5837 5837 5836 5836 5835 5835 5835 5834 5834 5833 5833 5833 5833 5832 5832 5831 5830 5829 5828 5826 5825 5824 5823 5822 5820 5819 5817 5816 5815 5813 5812 5811 5811 5810 5809 5807 5806 5805 5805
5829 5831 5833 5833 5832 5830 5831 5833 5831 5831 5831 5831 5831 5830 5829 5829 5828 5827 5827 5826 5826 5826 5825 5825 5824 5823 5822 5821 5819 5818 5816 5815 5814 5813 5812 5810 5808 5807 5805 5803 5802 5800 5799 5798 5797 5796 5795 5795 5794
5822 5824 5825 5827 5824 5823 5824 5825 5825 5825 5825 5824 5823 5824 5823 5823 5823 5822 5822 5821 5820 5819 5817 5815 5814 5813 5812 5811 5810 5808 5807 5805 5803 5802 5801 5800 5798 5797 5795 5793 5791 5788 5787 5785 5785 5783 5782 5780 5780
5814 5815 5817 5818 5816 5814 5815 5817 5817 5817 5817 5817 5817 5816 5816 5815 5815 5816 5815 5815 5815 5814 5813 5811 5810 5809 5808 5807 5805 5803 5801 5799 5796 5794 5792 5790 5788 5786 5784 5782 5780 5778 5775 5773 5772 5771 5770 5767 5765
5805 5805 5807 5806 5806 5806 5806 5806 5809 5809 5809 5808 5809 5808 5808 5808 5807 5806 5806 5805 5803 5802 5801 5801 5800 5798 5797 5796 5795 5794 5792 5789 5787 5784 5781 5778 5774 5771 5769 5767 5765 5763 5762 5760 5758 5756 5754 5752 5751
5794 5797 5796 5796 5795 5796 5797 5795 5801 5800 5800 5800 5800 5798 5798 5797 5798 5798 5797 5795 5793 5792 5789 5788 5789 5788 5787 5786 5784 5781 5778 5776 5774 5772 5769 5766 5763 5759 5757 5754 5751 5748 5745 5744 5742 5740 5737 5736 5735
5785 5786 5786 5786 5785 5785 5787 5788 5789 5792 5793 5792 5790 5789 5789 5788 5788 5789 5787 5785 5783 5780 5779 5777 5776 5775 5773 5772 5771 5769 5766 5763 5760 5757 5753 5750 5746 5744 5742 5738 5735 5732 5729 5727 5724 5722 5720 5718 5716
5774 5776 5776 5775 5774 5774 5780 5779 5775 5781 5785 5786 5784 5781 5779 5779 5779 5779 5777 5774 5771 5769 5767 5766 5764 5762 5760 5758 5755 5752 5749 5746 5744 5741 5738 5734 5730 5727 5725 5722 5719 5716 5713 5709 5705 5703 5701 5698 5696
5764 5765 5765 5765 5764 5767 5768 5768 5770 5768 5769 5770 5771 5771 5771 5770 5769 5768 5765 5763 5760 5756 5752 5751 5750 5748 5746 5743 5740 5738 5734 5731 5727 5723 5720 5717 5714 5711 5708 5704 5701 5697 5694 5690 5687 5684 5680 5677 5675
5754 5754 5755 5754 5756 5756 5755 5755 5758 5759 5759 5758 5757 5758 5757 5755 5754 5753 5750 5747 5745 5742 5742 5738 5735 5733 5731 5727 5724 5721 5718 5714 5710 5706 5701 5698 5694 5690 5687 5684 5681 5677 5674 5670 5667 5664 5661 5657 5653
5745 5744 5748 5746 5745 5744 5745 5745 5746 5745 5746 5745 5746 5745 5745 5744 5742 5740 5737 5735 5732 5729 5727 5724 5720 5718 5715 5712 5709 5704 5699 5696 5692 5688 5683 5679 5675 5670 5666 5663 5659 5655 5652 5648 5644 5641 5638 5635 5632
5734 5737 5735 5735 5735 5735 5734 5734 5732 5731 5731 5734 5735 5734 5732 5730 5728 5725 5722 5719 5716 5712 5710 5707 5705 5703 5700 5695 5691 5686 5681 5676 5672 5667 5663 5659 5655 5650 5646 5642 5638 5634 5630 5625 5621 5617 5613 5611 5606
5725 5724 5724 5725 5723 5722 5723 5721 5718 5718 5719 5720 5721 5719 5717 5716 5713 5709 5707 5704 5702 5697 5694 5692 5689 5686 5682 5677 5672 5667 5661 5657 5652 5648 5643 5638 5634 5630 5625 5620 5615 5610 5605 5600 5596 5592 5588 5585 5581
5711 5711 5712 5710 5712 5712 5709 5708 5705 5708 5709 5708 5706 5704 5703 5700 5697 5694 5691 5689 5686 5681 5679 5676 5673 5668 5663 5659 5654 5647 5642 5638 5632 5627 5622 5617 5612 5607 5601 5595 5589 5583 5578 5573 5569 5566 5562 5559 5555